Regional Weather Roundup
Issued by NWS

Home | Current Version | Previous Version | Graphics & Text | Print | Product List | Glossary On
Versions: 1 2 3 4 5 6 7 8 9 10 11 12 13 14 15 16 17 18 19 20 21 22 23 24 25 26 27 28 29 30 31 32 33 34 35 36 37 38 39 40 41 42 43 44 45 46 47 48 49 50
291
ASUS45 KPSR 172110
RWRAZ

ARIZONA HOURLY REGIONAL WEATHER ROUNDUP
NATIONAL WEATHER SERVICE PHOENIX AZ
200 PM MST THU AUG 17 2017

NOTE: FAIR INDICATES FEW OR NO CLOUDS BELOW 12,000 FEET WITH NO
SIGNIFICANT WEATHER AND/OR OBSTRUCTIONS TO VISIBILITY.

AZZ001>003-036-172200-
NORTHWEST ARIZONA

CITY           SKY/WX    TMP DP  RH WIND       PRES   REMARKS
BULLHEAD CITY  SUNNY    104  36   9 S13       29.87F
KINGMAN        SUNNY     94  40  15 W12G22    30.08F
$$

AZZ004>008-015-016-018-172200-
NORTH CENTRAL ARIZONA

CITY           SKY/WX    TMP DP  RH WIND       PRES   REMARKS
GRAND CANYON   SUNNY     80  32  17 SW5       30.30F
PRESCOTT       SUNNY     84  38  19 MISG      30.21F
FLAGSTAFF      SUNNY     76  30  18 SW10      30.35F
PAGE           SUNNY     93  32  11 N7        30.10F
$$

AZZ009>014-017-172200-
NORTHEAST ARIZONA

CITY           SKY/WX    TMP DP  RH WIND       PRES   REMARKS
WINSLOW        SUNNY     88  32  13 VRB5      30.17F
SAINT JOHNS    SUNNY     85  36  17 VRB6      30.23F
WINDOW ROCK    SUNNY     83  31  15 SW12G20   30.30F
$$

AZZ540-542>544-546-548-172200-
GREATER PHOENIX AREA

CITY           SKY/WX    TMP DP  RH WIND       PRES   REMARKS
PHOENIX        MOSUNNY  102  35  10 S6        29.91F
GLENDALE       SUNNY    100  34  10 VRB5      29.93F
LUKE AFB       SUNNY     99  39  12 CALM      29.91F
DEER VALLEY    SUNNY     98  32  10 CALM      29.94F
SCOTTSDALE     SUNNY     98  33  10 VRB3      29.96F
MESA-FALCON    SUNNY    100  36  10 SW12      29.95F
MESA-GATEWAY   SUNNY     99  36  11 SW9       29.96F
CHANDLER       SUNNY     99  36  11 S12       29.94F
$$

AZZ539-553-172200-
SOUTHWEST MARICOPA COUNTY AND PINAL COUNTY

CITY           SKY/WX    TMP DP  RH WIND       PRES   REMARKS
CASA GRANDE    SUNNY     98  42  14 E5        29.95F
GILA BEND      SUNNY    104  31   7 S10       29.87F
$$

AZZ503-504-507>509-172200-
SOUTHEAST ARIZONA

CITY           SKY/WX    TMP DP  RH WIND       PRES   REMARKS
TUCSON         NOT AVBL
DAVIS-MONTHAN  SUNNY    101  29   8 CALM      30.02F
RYAN FIELD     SUNNY     97  36  11 MISG      30.02F
NOGALES        SUNNY     92  32  12 W12       30.14F
SIERRA VISTA   SUNNY     89  39  17 W7        30.19F
DOUGLAS        SUNNY     89  46  22 VRB7      30.13F
SAFFORD        SUNNY     95  45  17 S7        30.04F
$$

AZZ532-172200-
SOUTHWEST ARIZONA

CITY           SKY/WX    TMP DP  RH WIND       PRES   REMARKS
YUMA           SUNNY    101  47  16 SW10      29.85F
$$

CAZ041-043-047-048-061-525>527-560>570-172200-
SOUTHERN CALIFORNIA

CITY           SKY/WX    TMP DP  RH WIND       PRES   REMARKS
DOWNTOWN L.A.  SUNNY     78  62  57 MISG      29.98F
L.A. AIRPORT   MOSUNNY   75  62  64 W15       29.99F
SAN DIEGO      SUNNY     76  60  57 W8        30.01F
BURBANK        SUNNY     81  57  43 S8        29.98F
ONTARIO        MOSUNNY   87  51  28 W12       29.97F
RIVERSIDE      SUNNY     86  58  38 W12       29.96F
PALM SPRINGS   SUNNY    104  39  10 VRB7      29.87F
EL CENTRO NAS  MOSUNNY  102  45  14 E9        29.85F
IMPERIAL       SUNNY    102  52  18 NE6       29.83F
BLYTHE         SUNNY    102  43  13 VRB3      29.86F
NEEDLES        SUNNY    105  31   7 VRB7      29.89F
$$

NVZ020-UTZ003-172200-
SOUTHERN NEVADA-UTAH

CITY           SKY/WX    TMP DP  RH WIND       PRES   REMARKS
LAS VEGAS      MOSUNNY  100  41  13 NE12G21   29.97F
SALT LAKE CITY MOSUNNY   90  38  16 VRB5      30.10F
$$

NMZ009-TXZ055-172200-
NEW MEXICO-WEST TEXAS

CITY           SKY/WX    TMP DP  RH WIND       PRES   REMARKS
ALBUQUERQUE    MOSUNNY   88  34  14 W9        30.19F
EL PASO        PTSUNNY   94  46  19 SE6       30.07F
$$


........................KEY........................
SKY/WX - SKY CONDITION/WEATHER
TMP    - TEMPERATURE IN FAHRENHEIT
DP     - DEW POINT IN FAHRENHEIT
RH     - RELATIVE HUMIDITY IN PERCENT
WIND   - DIRECTION AND SPEED IN MILES PER HOUR (MPH)
VRB    - VARIABLE WIND DIRECTION
PRES   - MEAN SEA LEVEL PRESSURE IN INCHES OF MERCURY
         F - FALLING PRESSURE   R - RISING PRESSURE
         S - STEADY PRESSURE
VSB    - VISIBILITY IN MILES
HX     - HEAT INDEX IN FAHRENHEIT
WCI    - WIND CHILL INDEX IN FAHRENHEIT
TC     - TEMPERATURE IN CELSIUS WHICH IS ALSO KNOWN AS
         TEMPERATURE IN CENTIGRADE
AFB    - AIR FORCE BASE
         LUKE AFB IS LUKE AIR FORCE BASE
         DAVIS-MONTHAN IS DAVIS-MONTHAN AIR FORCE BASE
NAS    - NAVAL AIR STATION
         EL CENTRO NAS IS EL CENTRO NAVAL AIR STATION
N/A    - NOT AVAILABLE





USA.gov is the U.S. government's official web portal to all federal, state and local government web resources and services.